Tracking 19177 objects as of 24-May-2018
HD Live streaming from Space Station
objects crossing your sky now

FLOCK 2K 14

Track FLOCK 2K 14 now!
10-day predictions
FLOCK 2K 14 is classified as:


NORAD ID: 42892
Int'l Code: 2017-042BV
Perigee: 454.7 km
Apogee: 471.3 km
Inclination: 97.0 °
Period: 93.7 minutes
Semi major axis: 6833 km
RCS: Unknown
Launch date: July 14, 2017
Source: United States (US)
Launch site: TYURATAM MISSILE AND SPACE COMPLEX (TTMTR)
aabbcc
Your satellite tracking list
Your tracking list is empty




NASA's NSSDC Master Catalog

Two Line Element Set (TLE):
1 42892U 17042BV  18143.64280645 +.00003212 +00000-0 +91501-4 0  9999
2 42892 096.9826 041.5463 0012186 178.8941 181.2334 15.36708053047872
Source of the keplerian elements: AFSPC